This is the latest recevied weather packets stored in our database for station/object WD4DAN-13. If no packets are shown the sender has not sent any weather packets the latest 10 day(s).
| Time | Temp. | Humidity | Pressure | Rain* | Wind** | Luminosity | Snow |
|---|---|---|---|---|---|---|---|
| 1777401149 | 26.67° C | 58% | - | 0 mm | - | - | - |
| 1777400846 | 26.67° C | 58% | - | 0 mm | - | - | - |
| 1777400542 | 26.11° C | 62% | - | 0 mm | - | - | - |
| 1777400240 | 26.67° C | 62% | - | 0 mm | - | - | - |
| 1777399935 | 26.67° C | 64% | - | 0 mm | - | - | - |
| 1777399632 | 26.11° C | 61% | - | 0 mm | - | - | - |
| 1777399330 | 26.11° C | 63% | - | 0 mm | - | - | - |
| 1777399027 | 27.22° C | 63% | - | 0 mm | - | - | - |
| 1777398724 | 26.67° C | 63% | - | 0 mm | - | - | - |
| 1777398421 | 26.11° C | 64% | - | 0 mm | - | - | - |
| 1777398117 | 26.67° C | 62% | - | 0 mm | - | - | - |
| 1777397814 | 26.11° C | 63% | - | 0 mm | - | - | - |
| 1777397504 | 25.56° C | 71% | - | 0 mm | - | - | - |
| 1777397200 | 25° C | 69% | - | 0 mm | - | - | - |
| 1777396898 | 26.11° C | 67% | - | 0 mm | - | - | - |
| 1777396593 | 25.56° C | 68% | - | 0 mm | - | - | - |
| 1777396290 | 25.56° C | 70% | - | 0 mm | - | - | - |
| 1777395987 | 26.11° C | 68% | - | 0 mm | - | - | - |
| 1777395681 | 25.56° C | 71% | - | 0 mm | - | - | - |
| 1777395378 | 24.44° C | 70% | - | 0 mm | - | - | - |
| 1777395076 | 25° C | 71% | - | 0 mm | - | - | - |
| 1777394772 | 24.44° C | 73% | - | 0 mm | - | - | - |
| 1777394468 | 25° C | 71% | - | 0 mm | - | - | - |
| 1777394165 | 24.44° C | 72% | - | 0 mm | - | - | - |
| 1777393861 | 23.89° C | 73% | - | 0 mm | - | - | - |
* Rain latest hour (hover to see other rain measurements)
** Current wind speed in m/s (hover to see current wind gust speed)